Weather History for Upington, South Africa

Change the Weather History Date:

Friday, November 23, 2012

  Actual Average Record
Temperature  
Mean Temperature 84 °F -  
Max Temperature 103 °F 91 °F 104 °F (1998)
Min Temperature 64 °F 62 °F 50 °F (2007)
Cooling Degree Days 18    
Growing Degree Days 34 (Base 50)    
Moisture  
Dew Point 28 °F    
Average Humidity 13    
Maximum Humidity 28    
Minimum Humidity 4    
Precipitation  
Precipitation 0.00 in 0.02 in - ()
Sea Level Pressure  
Sea Level Pressure 29.84 in    
Wind  
Wind Speed 6 mph ()    
Max Wind Speed 15 mph    
Max Gust Speed 31 mph    
Visibility 8.4 miles    
Events      
Averages and records for this station are not official NWS values.
T = Trace of Precipitation, MM = Missing Value Source: Averaged Metar Reports

Daily Weather History Graph

Daily Weather History Graph

Search for Another Location

Airport:

Trip Planner

Search our weather history database for the weather conditions in past years. The results will help you decide how hot, cold, wet, or windy it might be!

Date:

Astronomy

Nov. 23, 2012 Rise Set
Actual Time 5:30 AM SAST 7:12 PM SAST
Civil Twilight 5:04 AM SAST 7:38 PM SAST
Nautical Twilight 4:33 AM SAST 8:09 PM SAST
Astronomical Twilight 4:00 AM SAST 8:42 PM SAST
Moon 2:53 PM SAST (11/23) 2:08 AM SAST (11/23)
Length of Visible Light 14h 33m
Length of Day
13h 41m
Waxing Gibbous, 77% of the Moon is Illuminated
Nov 23
Waxing Gibbous
Nov 28
Full
Dec 6
Last Quarter
Dec 13
New
Dec 20
First Quarter

Hourly Weather History & Observations

Time (SAST) Temp. Dew Point Humidity Pressure Visibility Wind Dir Wind Speed Gust Speed Precip Events Conditions
12:00 AM 71.6 °F 21.2 °F 15% 29.89 in - North 4.6 mph - N/A   Unknown
1:00 AM 69.8 °F 23.0 °F 17% 29.86 in - NNW 3.5 mph - N/A   Clear
2:00 AM 65 °F 22 °F 10%  in 25 mi SW 5.8 mph - -   Scattered Clouds
2:00 AM 64.4 °F 23.0 °F 21% 29.86 in - SW 4.6 mph - N/A   Clear
3:00 AM 66.2 °F 24.8 °F 21% 29.86 in - West 2.3 mph - N/A   Clear
4:00 AM 66.2 °F 28.4 °F 24% 29.86 in - WSW 5.8 mph - N/A   Clear
5:00 AM 65 °F 29 °F 15%  in 25 mi WSW 4.6 mph - -   Scattered Clouds
5:00 AM 64.4 °F 30.2 °F 28% 29.86 in - WSW 3.5 mph - N/A   Clear
6:00 AM 66.2 °F 32.0 °F 28% 29.89 in - SSW 1.2 mph - N/A   Clear
6:39 AM 69.8 °F 32.0 °F 25% 29.89 in - NW 2.3 mph - N/A   Clear
7:00 AM 71.6 °F 32.0 °F 23% 29.89 in - SW 1.2 mph - N/A   Clear
7:35 AM 75.2 °F 32.0 °F 21% 29.92 in - SSW 1.2 mph - N/A   Clear
8:00 AM 78 °F 31 °F 10%  in 25 mi Calm Calm - -   Scattered Clouds
8:00 AM 77.0 °F 32.0 °F 19% 29.92 in - Calm Calm - N/A   Clear
9:00 AM 84.2 °F 32.0 °F 15% 29.89 in - WSW 2.3 mph - N/A   Clear
9:20 AM 87.8 °F 26.6 °F 11% 29.89 in - North 4.6 mph - N/A   Clear
10:00 AM 87.8 °F 26.6 °F 11% 29.86 in - North 5.8 mph - N/A   Clear
11:00 AM 92 °F 29 °F 5%  in 16 mi NNW 12.7 mph - -   Haze
11:00 AM 91.4 °F 30.2 °F 11% 29.86 in - NNW 11.5 mph - N/A   Clear
11:40 AM 96.8 °F 32.0 °F 10% 29.86 in - NW 12.7 mph - N/A   Clear
12:00 PM 96.8 °F 32.0 °F 10% 29.86 in - NW 12.7 mph - N/A   Clear
1:00 PM 98.6 °F 32.0 °F 10% 29.83 in 6.2 mi WNW 13.8 mph 31.1 mph N/A   Partly Cloudy
2:00 PM 101 °F 33 °F 4%  in 16 mi West 13.8 mph - -   Haze
2:00 PM 100.4 °F 32.0 °F 9% 29.77 in 6.2 mi West 12.7 mph - N/A   Partly Cloudy
3:00 PM 98.6 °F 30.2 °F 9% 29.77 in 6.2 mi West 13.8 mph 25.3 mph N/A   Partly Cloudy
4:00 PM 100.4 °F 30.2 °F 9% 29.74 in 6.2 mi WSW 13.8 mph - N/A   Partly Cloudy
5:00 PM 97 °F 27 °F 4%  in 25 mi West 15.0 mph - -   Scattered Clouds
5:00 PM 96.8 °F 28.4 °F 9% 29.74 in 6.2 mi West 15.0 mph - N/A   Partly Cloudy
6:00 PM 96.8 °F 28.4 °F 9% 29.74 in 6.2 mi WNW 15.0 mph - N/A   Partly Cloudy
7:00 PM 91.4 °F 28.4 °F 10% 29.74 in 6.2 mi NW 9.2 mph - N/A   Partly Cloudy
8:00 PM 87 °F 27 °F 5%  in 25 mi SW 9.2 mph - -   Scattered Clouds
8:00 PM 86.0 °F 28.4 °F 12% 29.77 in - SW 8.1 mph - N/A   Clear
9:00 PM 84.2 °F 24.8 °F 11% 29.80 in - SW 9.2 mph - N/A   Unknown
10:00 PM 78.8 °F 23.0 °F 13% 29.80 in - WSW 4.6 mph - N/A   Unknown
11:00 PM 78 °F 18 °F 4%  in - WSW 5.8 mph - -  
11:00 PM 77.0 °F 19.4 °F 12% 29.80 in - WSW 5.8 mph - N/A   Unknown